National Oceanic Atmosphere Administration National Weather Service Headquarters National Weather Service Headquarters
NOAA logo WFO Anchorage Scalable transition graphic NWS logo
Transition from title bar to navgation bar   Aviation Weather 00 AKDT 
blankspace Home   |   Mobile   |   Social Media   |   Mesonet   |   Surface Map   |   Radar   |   Submit Storm Reports   |   News =08 GMT 

LocalForecast by City, St or Zip Code

spacer

Forecasts/Products
  Public
  Forecast Discussion
    - With Glossary
  Aviation
  Marine
  Hydrology(RFC)
  Rivers & Lakes AHPS
  Ice Desk
  TV Weather
  Fire Weather
  Avalanche
  Travel 511
  Graphical
  xml logo RSS Feeds
  Marine FTPMail

spacer

Data
  Mesonet
  Model Graphics
  Local Model
  Observations
  Marine Obs
  Satellite/Radar
  Vent Factor
  Soaring Index
  Weather Links

spacer

Climate
  PAFC Climate
  Interactive Climate
  PAFC Records
  Local
  National
  More

spacer

Outreach
  About Us
  Community Outreach
  Kids' Page
  Tour/Speaker Request
  Weather Classroom
  Social Media

spacer

Reports
  COOP Observers
  Local Storm Reports
  Spotter Page
  Submit a Storm Report

spacer

Miscellaneous
  Archived Alaska Weather Stories
  Student Career Opportunities
  Research Papers

spacer

Print Friendly/
Low Bandwidth

  Public Forecasts
  Marine Forecasts

spacer

Contact Us
  mailto pafcweb

spacer

Facebook Follow the National Weather Service in Alaska on Twitter
USA.gov is the U.S. government's official web portal to all federal, state and local government web resources and services.


 ICAO ID:   AAWU Graphics

Internet access to TAFs and METAR observations is for planning purposes only. We can not guarantee the timeliness of internet products. Before flying please get a formal pilot briefing (1-800-992-7433) and ALWAYS file a Flight Plan!Pilot briefings are provided to licensed aircraft pilots, ONLY! Others may not use the above number to obtain weather information.

Check out the Key to TAFs and METARs for help with decoding the information.

A 12 hour summary of TAFs can be found here.

PAKN TAF
PAKN 010547Z 0106/0206  15015KT P6SM -RA SCT025 OVC035
      TEMPO 0106/0110 BKN025
     FM011500 06007KT P6SM -SHRA BKN040 BKN060=


METAR PAKN 010754Z 11012KT 10SM -RA SCT032 OVC043 03/01 A2893 RMK
 AO2 SLP798 P0000 T00280011 $=
METAR PAKN 010754Z 11012KT 10SM -RA SCT032 OVC043 03/01 A2893=
METAR PAKN 010654Z 11011KT 10SM -RA SCT032 OVC043 03/01 A2894 RMK AO2
     SLP801 P0000 T00280011 $=
METAR PAKN 010654Z 11011KT 10SM -RA SCT032 OVC043 03/01 A2894=
SPECI PAKN 010601Z 10011KT 10SM -RA SCT032 OVC043 02/01 A2893 RMK AO2
     P0000 T00220011 $=
PAKN 010601Z 10011KT 10SM -RA SCT032 OVC043 02/01 A2893=
METAR PAKN 010554Z 09011KT 10SM -RA BKN026 OVC030 02/01 A2893 RMK
 AO2 SLP797 4/003 P0000 60014 T00220011 10028 21011 50000 $=
METAR PAKN 010554Z 09011KT 10SM -RA BKN026 OVC030 02/01 A2893=
METAR PAKN 010454Z 14015KT 10SM -RA BKN026 OVC030 03/01 A2893 RMK AO2
     SLP798 P0000 T00280006 $=
METAR PAKN 010454Z 14015KT 10SM -RA BKN026 OVC030 03/01 A2893=
SPECI PAKN 010436Z 15017G24KT 10SM -RA BKN026 OVC033 03/01 A2893 RMK
 AO2 P0000 T00280011 $=
SPECI PAKN 010403Z 16018KT 10SM -RA OVC033 02/01 A2893 RMK AO2 P0000
 T00220011 $=


National Weather Service
Anchorage Forecast Office
6930 Sand Lake Road
Anchorage, Ak 99502
(907) 266-5105 M-F/7-5pm
About Us
Career Opportunities
Glossary
Disclaimer
Privacy Policy
Credits
Alaska Weather Information Line:
1-800-472-0391